| time (UTC) | temp F | wind direction | speed knots | gust knots | rain 1hr in | rain 24hr in | rain mn in | humidity % | barometer mb |
| 20260503021544 | 51 | 4 | 1.7 | 2.6 | 0.01 | 0.02 | 0.01 | 92 | 1008.3 |
| 20260503020046 | 51 | 340 | 0.0 | 0.0 | 0.01 | 0.02 | 0.01 | 92 | 1008.4 |
| 20260503014543 | 51 | 340 | 0.0 | 0.0 | 0.00 | 0.02 | 0.00 | 92 | 1008.6 |
| 20260503013036 | 51 | 341 | 0.0 | 0.9 | 0.00 | 0.02 | 0.00 | 92 | 1008.7 |
| 20260503011540 | 51 | 359 | 0.0 | 0.9 | 0.00 | 0.02 | 0.00 | 91 | 1008.8 |
| 20260503010032 | 51 | 347 | 0.0 | 1.7 | 0.00 | 0.02 | 0.00 | 91 | 1008.8 |
| 20260503004530 | 51 | 347 | 0.0 | 0.0 | 0.00 | 0.02 | 0.00 | 91 | 1008.9 |
| 20260503003029 | 51 | 359 | 0.0 | 0.0 | 0.00 | 0.02 | 0.00 | 91 | 1009.1 |
| 20260503001529 | 51 | 347 | 0.0 | 0.0 | 0.00 | 0.02 | 0.00 | 91 | 1009.1 |
| 20260503000026 | 51 | 359 | 0.0 | 0.0 | 0.00 | 0.02 | 0.00 | 91 | 1009.2 |
| 20260502234524 | 52 | 347 | 0.0 | 0.0 | 0.00 | 0.02 | 0.00 | 91 | 1009.3 |
| 20260502233019 | 52 | 347 | 0.0 | 1.7 | 0.00 | 0.02 | 0.00 | 91 | 1009.3 |
| 20260502231515 | 52 | 347 | 0.9 | 2.6 | 0.00 | 0.02 | 0.00 | 91 | 1009.4 |
| 20260502230011 | 52 | 359 | 0.9 | 2.6 | 0.00 | 0.02 | 0.00 | 90 | 1009.3 |
| 20260502224509 | 52 | 347 | 0.9 | 2.6 | 0.00 | 0.02 | 0.02 | 90 | 1009.4 |
| 20260502223007 | 52 | 26 | 1.7 | 3.5 | 0.00 | 0.02 | 0.02 | 90 | 1009.4 |
| 20260502221507 | 52 | 26 | 2.6 | 4.3 | 0.00 | 0.02 | 0.02 | 90 | 1009.6 |
| 20260502220006 | 52 | 62 | 1.7 | 3.5 | 0.00 | 0.02 | 0.02 | 91 | 1009.7 |
| 20260502214504 | 51 | 118 | 0.0 | 1.7 | 0.00 | 0.02 | 0.02 | 90 | 1009.7 |
| 20260502213004 | 52 | 118 | 0.9 | 1.7 | 0.00 | 0.02 | 0.02 | 90 | 1009.7 |
| 20260502211513 | 52 | 118 | 0.9 | 2.6 | 0.00 | 0.02 | 0.02 | 90 | 1009.8 |
| 20260502210006 | 52 | 118 | 0.9 | 2.6 | 0.00 | 0.02 | 0.02 | 90 | 1009.8 |
| 20260502204502 | 52 | 118 | 1.7 | 3.5 | 0.00 | 0.02 | 0.02 | 89 | 1009.9 |
| 20260502203000 | 52 | 118 | 2.6 | 5.2 | 0.00 | 0.02 | 0.02 | 89 | 1009.9 |
| 20260502201600 | 52 | 108 | 2.6 | 6.1 | 0.00 | 0.02 | 0.02 | 89 | 1010.0 |
| 20260502200059 | 53 | 99 | 3.5 | 7.0 | 0.00 | 0.02 | 0.02 | 88 | 1010.0 |
| 20260502194559 | 53 | 116 | 5.2 | 7.8 | 0.00 | 0.02 | 0.02 | 88 | 1010.0 |
| 20260502193059 | 53 | 106 | 5.2 | 8.7 | 0.00 | 0.02 | 0.02 | 87 | 1010.1 |
| 20260502191558 | 53 | 117 | 5.2 | 7.0 | 0.00 | 0.02 | 0.02 | 86 | 1010.0 |
| 20260502190058 | 53 | 128 | 4.3 | 7.0 | 0.00 | 0.02 | 0.02 | 86 | 1010.0 |
| 20260502184556 | 53 | 116 | 3.5 | 7.8 | 0.00 | 0.03 | 0.02 | 85 | 1010.1 |
| 20260502183059 | 54 | 119 | 4.3 | 7.8 | 0.00 | 0.03 | 0.02 | 84 | 1010.1 |
| 20260502181555 | 54 | 108 | 3.5 | 7.0 | 0.00 | 0.03 | 0.02 | 84 | 1010.1 |
| 20260502163054 | 56 | 71 | 3.5 | 8.7 | 0.00 | 0.04 | 0.02 | 79 | 1010.5 |
| 20260502161552 | 56 | 67 | 5.2 | 9.6 | 0.00 | 0.04 | 0.02 | 78 | 1010.7 |
| 20260502151539 | 55 | 54 | 5.2 | 8.7 | 0.00 | 0.06 | 0.02 | 82 | 1011.4 |
| 20260502123022 | 54 | 54 | 5.2 | 7.8 | 0.00 | 0.12 | 0.01 | 84 | 1013.0 |
| 20260502121518 | 54 | 56 | 6.1 | 8.7 | 0.00 | 0.12 | 0.01 | 84 | 1013.3 |
| 20260502114515 | 54 | 52 | 7.0 | 8.7 | 0.00 | 0.20 | 0.01 | 83 | 1013.6 |
| 20260502113018 | 54 | 52 | 7.0 | 8.7 | 0.00 | 0.20 | 0.01 | 84 | 1013.7 |
| 20260502111515 | 54 | 50 | 7.0 | 8.7 | 0.00 | 0.20 | 0.01 | 84 | 1013.6 |
| 20260502110018 | 54 | 66 | 5.2 | 7.8 | 0.00 | 0.20 | 0.01 | 83 | 1013.5 |
| 20260502104533 | 54 | 48 | 4.3 | 7.0 | 0.00 | 0.22 | 0.01 | 84 | 1013.5 |
| 20260502103010 | 54 | 51 | 3.5 | 7.0 | 0.00 | 0.22 | 0.01 | 84 | 1013.5 |
| 20260502101508 | 54 | 60 | 3.5 | 5.2 | 0.00 | 0.22 | 0.01 | 85 | 1013.6 |
| 20260502091509 | 52 | 54 | 4.3 | 5.2 | 0.00 | 0.22 | 0.01 | 88 | 1014.2 |
| 20260502070058 | 53 | 287 | 0.0 | 3.5 | 0.00 | 0.22 | 0.01 | 88 | 1014.4 |
| 20260502064606 | 52 | 280 | 0.0 | 2.6 | 0.00 | 0.22 | 0.01 | 89 | 1014.4 |
| 20260502063052 | 52 | 160 | 3.5 | 4.3 | 0.00 | 0.22 | 0.01 | 88 | 1014.2 |
| 20260502061551 | 52 | 185 | 0.9 | 4.3 | 0.00 | 0.22 | 0.01 | 91 | 1014.2 |
| 20260502060046 | 50 | 163 | 4.3 | 6.1 | 0.00 | 0.22 | 0.01 | 91 | 1014.1 |
| 20260502054546 | 49 | 198 | 1.7 | 2.6 | 0.00 | 0.22 | 0.01 | 91 | 1014.1 |
| 20260502053044 | 48 | 177 | 0.9 | 3.5 | 0.00 | 0.22 | 0.01 | 91 | 1014.2 |
| 20260502051607 | 48 | 287 | 0.0 | 2.6 | 0.00 | 0.22 | 0.01 | 90 | 1014.3 |
| 20260502050043 | 47 | 158 | 1.7 | 4.3 | 0.00 | 0.22 | 0.01 | 90 | 1014.2 |
| 20260502044542 | 48 | 154 | 2.6 | 4.3 | 0.00 | 0.22 | 0.01 | 90 | 1014.3 |
| 20260502043044 | 47 | 174 | 2.6 | 4.3 | 0.00 | 0.22 | 0.01 | 89 | 1014.2 |
| 20260502041541 | 48 | 272 | 0.9 | 2.6 | 0.00 | 0.22 | 0.01 | 89 | 1014.2 |
| 20260502040039 | 48 | 359 | 1.7 | 3.5 | 0.00 | 0.22 | 0.01 | 89 | 1014.3 |
| 20260502034544 | 48 | 197 | 0.9 | 3.5 | 0.00 | 0.22 | 0.01 | 89 | 1014.4 |
| 20260502033048 | 49 | 171 | 0.0 | 0.9 | 0.00 | 0.22 | 0.01 | 89 | 1014.5 |
| 20260502031542 | 49 | 359 | 1.7 | 2.6 | 0.00 | 0.22 | 0.01 | 89 | 1014.6 |
| 20260502030032 | 48 | 197 | 2.6 | 4.3 | 0.00 | 0.22 | 0.01 | 89 | 1014.6 |
| 20260502024531 | 49 | 230 | 1.7 | 2.6 | 0.00 | 0.22 | 0.01 | 89 | 1014.7 |
| 20260502023029 | 49 | 199 | 2.6 | 3.5 | 0.00 | 0.22 | 0.01 | 88 | 1014.8 |